Preview of NWS' New Version of Forecast
This preview is not operational and should not be used for support decisions.

Regional Weather Roundup (RWR)

Issued by Bismarck, ND (BIS)

                            
537 
ASUS43 KBIS 212310
RWRBIS

NWR BROADCAST TEXT
NATIONAL WEATHER SERVICE BISMARCK ND
600 PM CDT THU JUN 21 2018

NOTE: "FAIR" INDICATES FEW OR NO CLOUDS BELOW 12,000 FEET WITH NO
SIGNIFICANT WEATHER AND/OR OBSTRUCTIONS TO VISIBILITY.

  
CITY           SKY/WX    TMP DP  RH WIND       PRES   REMARKS
WILLISTON      MOSUNNY   85  48  27 S8        29.92F                  
MINOT          CLOUDY    81  53  37 S7        29.93F                  
MINOT AFB      CLOUDY    81  53  37 S6        29.92F                  
BISMARCK       PTSUNNY   84  52  33 SW8       29.96F                  
DICKINSON      MOSUNNY   78  51  38 S8        29.96F                  
GARRISON         N/A     77  57  50 CALM      29.95F                  
HETTINGER ARPT SUNNY     79  46  31 S7        29.98F                  
JAMESTOWN      MOSUNNY   83  57  41 S5        29.92F                  
CARRINGTON     FAIR      82  59  44 MISG      29.95F                  
HAZEN          FAIR      81  52  36 CALM      29.97F                  
LINTON           N/A     77  59  53 CALM      29.99F                  
MANDAN         FAIR      77  54  44 S3        29.98F                  
OAKES          FAIR      82  59  44 CALM      29.92F                  
RUGBY          MOCLDY    82  55  39 VRB7      29.93F                  
STANLEY          N/A     79  54  41 CALM      29.98F                  
TIOGA          FAIR      77  54  44 SE3       29.96F                  
WATFORD CITY   FAIR      82  50  32 SE9       29.92F                  
$$
  
CITY           SKY/WX    TMP DP  RH WIND       PRES   REMARKS
GRAND FORKS    PTSUNNY   86  61  42 CALM      29.88F                  
GRAND FORKS AF PTSUNNY   86  58  37 E6        29.89F                  
DEVILS LAKE    NOT AVBL                                               
FARGO          FAIR      85  58  39 E7        29.89F                  
CANDO          FAIR      84  54  34 CALM      29.95F                  
CAVALIER       FAIR      86  57  37 CALM      29.88F                  
GRAFTON        FAIR      84  61  45 SW6       29.90F                  
GWINNER          N/A     82  54  36 CALM      29.91F                  
LANGDON        FAIR      86  55  35 CALM      29.94S                  
ROLLA          FAIR      82  52  34 CALM      29.96F                  
WALHALLA       FAIR      86  61  42 SW6       29.89S                  
$$
  
CITY           SKY/WX    TMP DP  RH WIND       PRES   REMARKS
ABERDEEN       PTSUNNY   84  57  39 E5        29.92F                  
MOBRIDGE       CLOUDY    80  55  42 NW3       29.95F                  
BUFFALO          N/A     79  51  37 SE14      29.92F                  
RAPID CITY     MOSUNNY   76  55  48 S10G16    30.01F                  
GLASGOW        MOSUNNY   85  50  29 SE12      29.86F                  
SIDNEY         SUNNY     82  53  36 S10       29.91F                  
WOLF POINT     MOSUNNY   84  54  35 E6        29.88F                  
GLENDIVE       MOSUNNY   80  55  42 S12       29.91F                  
MILES CITY     SUNNY     82  57  42 SE10      29.88F                  
BAKER          SUNNY     79  56  45 S13       29.96F                  
$$
  
CITY           SKY/WX    TMP DP  RH WIND       PRES   REMARKS
BILLINGS       PTSUNNY   79  54  41 SE5       29.88F                  
GREAT FALLS    MOSUNNY   77  54  44 W16       29.89F                  
REGINA         PTSUNNY   79  50  36 S6        29.90F                  
ESTEVAN        PTSUNNY   81  50  34 SE5       29.93F                  
$$